Theta_e
312 313 313 313 313 313 312 311 310 308 309 309 309 309 308 307 307 307 307 308 308 308 308 308 309 309 309 310 311 312 312 312 314 315 316 316 314 313 311 311 311 312 312 312 313 314 315 316 316 316 316 315 314 313 313 313 313 315 316 315 313 314 313 314 314 313 314 314 313 313 313 314 314 314 314 314 312 317 329 336 336 338 339 341 342 342 342 340
309 311 313 313 314 313 313 312 311 309 308 310 310 309 309 308 307 307 307 307 308 307 308 308 309 309 308 310 311 312 312 314 317 319 318 314 312 311 311 310 312 312 312 312 313 313 315 317 317 316 315 315 315 314 313 313 313 315 317 314 315 318 315 315 314 314 314 313 313 313 313 313 314 314 313 314 311 314 324 330 337 340 339 339 340 340 340 340
306 308 310 312 313 313 313 313 312 310 309 309 310 310 310 309 307 307 307 307 307 307 308 308 308 308 309 310 311 312 314 316 319 321 318 312 311 310 310 311 312 312 312 312 313 314 315 316 316 315 316 315 316 315 313 314 312 314 315 314 318 319 315 315 315 314 314 313 313 314 313 314 315 314 314 313 312 314 314 321 337 341 339 338 338 339 339 340
304 305 307 309 311 313 313 313 312 311 309 309 310 311 311 311 310 309 308 309 308 308 308 308 309 308 309 310 312 313 315 319 319 316 315 312 311 310 310 311 311 312 312 312 312 313 314 314 315 317 318 317 316 314 313 315 313 313 314 315 317 317 314 314 316 316 315 315 315 314 315 315 315 314 315 314 313 314 313 322 338 340 337 337 337 338 338 338
304 304 304 306 308 312 313 313 312 312 311 309 309 310 311 312 312 311 311 310 310 309 308 308 308 308 310 310 313 314 316 323 319 313 313 312 313 312 310 311 311 312 311 312 312 313 315 315 316 318 318 317 316 314 314 314 314 314 315 315 316 315 315 314 316 317 316 316 315 315 315 314 315 315 314 314 314 312 317 330 338 337 336 336 336 336 337 337
304 303 304 304 306 311 312 313 312 311 311 310 309 310 311 312 312 312 312 311 311 310 309 309 309 309 310 311 314 316 318 322 318 313 314 313 314 312 310 310 310 311 312 313 313 315 316 316 319 319 316 316 316 315 315 315 316 318 317 316 317 317 317 316 316 316 316 316 316 315 314 314 315 315 313 313 314 313 323 334 335 334 334 334 335 336 338 339
304 303 303 303 306 310 312 312 311 310 310 310 310 309 311 312 312 312 312 312 312 311 311 311 310 310 311 313 317 319 319 320 317 315 316 314 313 311 311 313 313 315 314 314 314 316 317 317 318 317 315 316 316 316 316 316 317 317 316 317 318 317 318 317 318 318 317 316 317 316 314 315 315 314 314 314 314 315 325 335 334 332 332 332 335 337 339 339
303 303 302 303 306 309 310 311 310 310 310 310 310 310 310 311 312 312 312 313 312 312 312 312 312 312 312 314 319 322 322 322 319 317 315 313 312 312 314 317 317 317 316 316 316 317 317 316 316 316 316 317 316 316 316 317 319 317 316 317 318 319 318 318 318 319 319 318 317 317 315 317 316 315 314 314 315 314 321 332 333 330 330 330 332 334 337 338
303 302 302 303 305 308 309 309 309 309 309 310 310 310 309 311 312 312 312 313 313 313 313 312 312 312 312 315 319 324 325 321 317 316 315 313 313 314 316 317 316 317 317 317 317 317 316 316 316 316 316 316 316 316 316 317 318 317 316 317 318 319 319 318 318 319 319 318 317 317 317 318 316 315 313 314 317 313 318 329 331 328 328 328 328 329 332 336
302 302 302 303 305 307 308 308 308 308 309 309 310 310 309 310 311 312 313 313 313 313 313 313 312 311 313 317 321 325 323 317 316 317 316 315 315 316 316 316 316 316 316 316 315 316 316 316 316 315 316 316 316 316 316 316 318 317 317 319 319 319 319 318 317 319 319 317 317 317 318 318 316 316 314 315 316 314 319 326 327 326 326 326 325 326 327 329
302 302 302 303 304 306 307 308 308 308 309 309 310 310 310 310 311 312 313 313 313 313 313 312 312 311 313 318 321 322 320 316 316 317 316 317 316 316 316 316 316 316 316 316 315 315 315 315 315 316 317 316 316 317 316 316 316 316 318 319 319 318 319 321 319 319 319 318 318 318 318 320 318 318 315 315 316 315 320 324 323 324 324 324 324 324 325 324
302 302 302 302 304 305 307 307 307 308 309 310 310 310 310 311 311 312 312 312 312 312 312 311 312 312 314 320 322 320 319 317 316 316 316 317 316 316 316 316 316 316 316 315 315 316 316 316 316 317 317 316 316 317 317 317 318 319 321 321 323 323 321 323 322 321 321 321 321 319 321 325 321 317 316 317 317 315 318 321 322 322 323 323 323 323 324 323
303 303 302 302 303 305 306 306 307 307 309 310 310 310 311 312 312 312 312 312 311 310 311 311 312 312 315 321 322 319 319 317 315 316 316 315 316 316 315 316 316 315 316 315 316 316 315 316 316 317 317 316 317 318 317 317 320 322 321 323 327 328 328 326 323 324 324 324 323 319 320 326 322 316 318 319 318 315 316 319 321 321 322 322 322 323 324 323
303 303 303 303 303 304 305 306 307 307 309 310 311 311 312 312 312 312 313 312 310 310 311 312 312 313 317 320 318 318 319 318 316 315 316 316 316 316 315 316 316 316 316 315 316 316 316 316 315 316 316 316 317 317 317 319 327 328 323 332 331 323 333 334 324 326 328 328 326 320 321 326 324 319 319 319 317 316 316 318 321 322 322 323 323 323 324 324
303 303 303 303 303 304 305 306 306 308 310 310 311 311 312 313 312 313 315 312 310 312 312 312 313 315 321 322 318 319 320 318 316 315 316 316 315 315 314 315 315 316 316 315 316 316 315 315 315 317 317 318 316 316 320 324 336 334 323 335 336 323 333 337 324 326 329 329 325 321 323 325 323 320 318 318 317 317 316 317 321 323 322 323 323 324 324 324
303 303 303 303 303 304 305 306 307 309 310 311 312 313 313 314 314 316 315 311 311 312 311 314 316 316 324 326 319 318 318 317 316 315 316 315 315 314 314 315 315 316 316 316 316 315 315 316 316 318 316 317 318 323 332 335 342 343 327 329 334 327 330 332 327 328 327 326 323 321 323 323 321 319 317 317 317 318 317 317 321 322 323 323 323 324 324 325
305 303 303 303 304 304 305 306 307 309 311 311 313 315 317 317 318 319 316 312 313 314 312 314 315 316 323 323 319 319 317 316 316 316 315 315 315 315 315 315 313 314 315 315 315 315 315 316 316 319 320 320 323 330 335 334 339 343 333 329 331 328 327 330 331 326 323 323 322 321 323 323 321 318 317 318 317 319 319 318 320 322 322 323 323 324 325 325
306 304 303 303 304 304 305 306 308 310 311 312 314 317 320 321 321 319 316 315 315 316 317 317 317 319 320 320 322 321 317 315 316 315 315 316 315 316 316 315 314 315 315 315 315 315 315 318 320 321 326 328 329 333 328 326 327 327 324 323 326 328 325 329 332 327 323 323 323 325 325 323 320 317 318 318 318 321 320 318 319 321 322 323 323 325 325 325
308 305 304 303 304 305 305 306 310 311 312 313 316 319 321 321 322 318 315 317 318 320 324 322 322 323 318 318 321 319 315 316 316 315 315 316 315 316 316 315 316 316 316 316 316 316 314 319 321 321 328 329 326 327 322 320 321 318 318 318 323 331 330 329 332 327 323 324 325 325 324 321 319 318 318 318 320 322 322 320 318 319 321 323 324 325 325 326
311 307 305 304 304 305 306 307 311 313 313 316 317 321 323 322 326 325 318 319 320 319 321 322 323 322 318 317 318 316 316 316 315 316 316 316 315 315 315 315 316 317 317 317 317 317 316 320 322 324 333 330 321 322 321 319 319 319 322 321 325 331 331 328 327 323 322 329 328 321 322 322 320 321 318 317 321 322 322 322 318 318 321 322 323 324 325 326
315 310 306 304 304 305 307 308 312 314 315 317 316 321 325 322 323 324 319 320 319 316 318 319 319 320 319 318 317 316 317 315 315 316 315 316 315 315 316 315 316 318 318 317 318 320 323 324 324 324 328 325 320 321 320 319 320 322 325 325 326 328 327 324 322 321 322 335 333 323 325 325 322 326 323 319 322 322 322 322 319 318 320 322 323 324 325 326
317 312 307 305 304 306 307 309 314 316 316 317 316 318 321 319 319 320 319 321 319 316 318 318 318 319 319 318 318 316 316 317 317 316 316 316 316 316 316 315 315 316 318 321 323 326 327 326 324 322 322 321 320 321 320 320 322 326 329 328 328 328 328 326 327 322 322 338 338 327 330 329 324 328 328 323 322 321 321 322 321 318 319 320 321 323 325 325
317 315 309 305 304 306 307 311 316 316 316 317 316 317 319 319 320 319 319 321 321 319 319 320 320 320 318 317 317 316 316 317 317 317 317 317 317 317 316 317 318 317 319 323 326 326 323 324 324 320 321 320 319 320 324 325 324 326 329 328 327 326 327 330 333 325 322 333 333 326 331 333 329 331 331 326 320 318 319 321 320 318 318 319 319 321 322 323
317 317 312 306 305 306 308 315 318 315 317 318 318 318 319 320 321 320 321 323 322 321 320 320 320 318 317 317 315 316 317 317 317 317 317 318 319 318 317 318 319 318 320 322 326 326 321 324 323 317 317 319 319 322 326 329 327 325 326 325 324 325 324 326 329 327 325 326 325 327 333 335 334 331 330 326 319 316 318 320 320 317 317 319 318 319 319 320
316 317 315 308 305 305 309 317 318 315 317 318 318 320 320 319 319 320 323 326 327 326 321 317 318 319 318 317 316 317 316 316 317 317 317 318 319 320 319 318 317 319 321 321 322 323 321 320 320 317 317 320 321 321 322 328 327 326 328 325 321 322 321 321 323 326 328 325 324 329 333 335 333 329 327 325 322 320 318 319 319 317 316 317 317 319 318 318
315 318 316 309 306 306 312 321 318 316 318 317 319 322 319 319 318 321 327 330 331 330 322 317 317 319 318 317 317 317 319 320 318 317 318 317 317 319 321 322 321 318 320 322 321 322 320 317 318 318 319 322 323 320 320 325 323 322 328 324 320 320 319 320 321 323 328 326 324 326 330 333 330 329 329 327 327 327 325 323 319 315 315 315 316 318 318 318
315 318 316 310 307 308 317 323 317 317 320 318 321 320 317 319 319 321 333 336 331 324 320 319 318 318 318 317 318 320 322 321 318 318 318 317 317 316 319 325 323 319 322 326 327 326 321 318 319 320 321 323 323 320 318 321 320 320 324 321 318 319 319 321 325 330 331 326 324 328 332 333 329 328 330 328 328 330 329 327 320 315 314 314 316 317 316 317
315 318 317 310 307 311 317 318 316 318 320 319 319 317 316 320 322 327 336 334 326 321 320 320 317 317 317 316 318 322 322 319 320 322 319 316 317 317 321 324 319 319 322 322 325 327 322 318 319 322 325 323 319 318 317 318 319 318 319 318 318 319 319 320 327 335 332 326 327 330 329 330 331 330 330 328 327 329 330 327 320 315 314 314 315 315 315 316
314 318 317 309 306 314 317 315 316 319 318 317 317 316 317 321 327 337 340 330 321 320 322 321 320 319 320 319 318 320 319 319 323 325 320 316 317 318 321 320 316 319 320 317 323 325 320 319 321 326 329 322 316 317 317 318 319 317 318 322 323 323 323 323 327 332 333 331 332 330 326 326 331 331 327 327 327 328 328 325 320 315 313 313 313 313 314 316
314 318 316 308 307 316 317 315 318 319 317 317 316 317 322 330 336 341 339 330 322 322 322 321 321 321 322 322 323 322 319 318 320 321 318 318 321 321 321 318 317 323 321 317 321 320 319 322 322 323 324 319 317 317 315 316 317 318 324 330 330 329 331 333 333 332 332 332 330 327 325 325 327 329 328 326 324 324 326 327 322 313 312 312 312 312 313 315
315 318 314 307 307 315 318 317 318 317 316 317 317 322 330 337 342 341 335 329 329 329 325 326 327 322 321 322 323 321 319 318 319 317 319 324 328 328 327 320 321 329 324 318 320 319 321 324 320 321 319 316 319 319 316 315 316 319 324 328 330 331 334 338 337 334 330 328 328 327 328 327 325 328 329 324 320 322 325 328 323 312 310 310 310 311 312 314
316 318 312 308 308 313 319 319 316 315 318 319 323 334 342 340 338 338 333 330 335 334 328 328 327 320 323 328 324 319 319 319 319 318 319 324 325 323 323 319 322 332 326 320 322 321 324 324 318 321 321 316 321 326 324 321 320 322 323 327 331 330 330 333 332 330 327 325 326 326 328 329 328 329 328 322 322 326 324 322 318 310 309 309 309 310 312 313
317 317 310 309 312 316 322 319 315 318 320 321 329 342 348 341 335 335 335 332 333 333 329 325 321 320 328 335 326 321 322 320 318 320 321 323 325 320 318 319 324 330 326 321 323 324 329 330 320 321 323 317 320 326 325 322 323 322 322 328 332 329 329 330 328 324 323 324 326 326 325 327 328 329 326 322 321 323 320 315 312 309 309 310 309 310 311 312
319 314 308 312 315 321 327 320 317 322 321 324 336 345 342 338 334 333 336 336 329 326 326 323 320 323 328 329 325 321 325 325 319 322 326 327 328 324 319 319 321 326 330 327 324 322 327 329 321 319 322 319 319 323 323 324 326 321 320 326 328 329 330 329 328 326 325 326 327 326 325 326 327 326 323 321 319 319 316 311 309 309 309 310 310 310 311 311
319 311 310 316 316 324 328 321 320 322 320 328 343 345 338 334 334 330 329 333 328 322 324 323 323 330 330 330 330 323 322 323 319 325 331 326 326 325 322 321 318 321 331 329 322 320 323 326 323 317 318 319 319 321 322 325 326 321 322 325 323 327 330 327 326 327 326 328 327 324 325 326 327 326 322 319 316 313 311 309 309 310 310 310 311 311 311 311
317 309 313 320 319 325 326 322 323 321 323 336 345 343 338 333 334 333 325 325 323 321 327 328 326 329 329 331 334 327 321 322 321 326 330 324 323 324 321 321 317 320 331 328 320 322 324 325 325 318 317 320 319 320 321 321 325 326 324 323 319 321 327 325 324 326 326 327 324 322 325 327 326 328 324 316 312 309 309 309 310 310 311 312 312 311 311 311
314 309 316 323 323 326 324 323 323 320 329 344 343 339 339 333 332 331 324 322 321 324 331 329 324 324 326 328 330 328 326 326 325 324 325 327 326 321 320 322 318 318 326 326 321 322 323 324 323 319 318 319 320 325 325 321 325 328 323 320 319 320 325 325 323 326 328 326 323 322 325 325 325 328 325 315 310 309 309 310 310 311 311 312 311 311 312 313
310 312 321 325 323 324 324 323 321 323 337 346 340 337 335 329 326 323 321 320 322 329 332 326 323 324 326 327 327 327 327 327 327 322 322 327 325 318 319 322 320 320 321 323 323 322 324 327 326 322 318 317 325 331 326 322 324 322 319 320 319 320 325 324 320 324 327 325 324 324 324 324 325 329 325 313 310 310 310 310 311 311 311 312 312 313 314 315
311 319 330 328 323 325 324 321 323 333 345 343 337 336 330 325 324 322 323 321 321 330 328 322 325 326 326 328 327 327 326 323 324 323 321 324 323 319 318 318 322 326 322 320 322 324 326 326 326 326 318 317 328 330 323 324 325 320 318 320 322 322 321 318 318 322 324 325 324 324 324 324 325 326 320 312 311 311 311 312 312 311 312 312 313 314 314 314
313 322 329 325 324 325 322 323 331 341 346 337 333 333 327 324 324 322 322 320 321 326 322 321 327 327 325 327 326 324 325 324 324 324 323 323 324 321 319 321 323 323 319 319 321 325 326 322 322 327 323 321 327 326 323 327 324 321 322 320 319 320 318 317 319 319 320 323 324 325 324 324 326 324 316 312 312 312 312 314 312 311 312 312 312 313 311 311
316 326 328 324 325 324 323 331 338 340 339 333 334 335 328 324 324 323 321 319 320 324 324 326 327 327 327 326 325 323 326 328 325 323 323 324 326 326 323 323 320 317 320 324 322 323 325 322 321 325 325 324 325 324 327 328 324 325 326 319 315 316 319 321 320 319 320 319 318 322 325 325 325 321 315 313 313 313 313 313 312 311 311 312 313 312 310 310
322 333 329 321 322 322 327 336 337 335 336 332 332 335 330 324 324 323 320 319 320 321 326 327 326 328 327 324 326 326 325 328 325 323 323 321 325 329 325 322 321 319 322 323 320 322 328 327 325 325 324 323 325 325 325 324 323 325 324 321 320 317 320 325 321 318 321 318 317 322 325 325 323 317 315 315 314 313 313 314 314 313 312 312 313 312 310 310
323 328 324 319 321 323 329 336 334 334 338 334 329 330 329 326 326 324 321 321 321 321 324 325 324 326 323 321 327 326 322 325 324 323 324 321 321 325 324 324 323 322 324 322 320 323 328 327 325 326 325 325 328 329 324 323 324 323 320 321 323 318 319 326 325 319 319 319 321 322 322 325 325 318 314 314 314 313 313 314 316 314 313 313 312 311 311 310
316 318 322 323 323 324 327 330 328 330 335 332 329 329 329 327 326 324 322 321 322 322 323 323 323 324 324 324 326 324 323 326 325 325 325 323 320 319 323 326 322 320 324 324 319 318 321 324 327 329 327 327 331 331 328 329 327 322 320 320 322 319 316 319 321 319 318 317 317 317 319 325 326 319 314 313 314 315 312 313 316 314 312 313 311 311 313 311
317 320 324 324 324 325 327 329 328 329 332 332 331 331 327 326 327 324 322 323 323 323 323 323 323 324 325 326 325 324 325 326 326 326 324 324 324 319 317 322 322 322 324 324 325 325 322 324 329 330 326 325 328 326 327 329 323 317 318 320 321 319 314 315 318 320 320 315 313 318 323 325 322 317 317 316 315 317 315 313 314 313 312 311 311 312 312 310
322 327 329 329 329 328 328 331 329 327 329 331 332 331 325 325 327 324 323 325 325 326 325 323 323 325 325 325 325 324 323 322 323 325 323 324 327 320 314 318 322 324 322 322 330 332 326 326 329 329 327 326 325 325 326 325 318 316 319 321 322 319 315 317 319 320 322 319 317 321 321 319 318 317 318 318 315 316 317 314 313 314 312 310 311 311 310 308
322 327 328 327 330 329 327 328 325 322 324 326 328 328 326 325 325 324 326 327 326 328 328 326 325 325 324 324 324 322 321 322 324 323 321 323 326 321 318 319 322 326 323 320 328 334 331 329 327 323 326 327 325 326 325 320 318 321 323 323 323 320 316 317 316 315 318 317 318 320 316 315 318 318 317 318 315 316 319 316 313 312 310 309 311 310 309 308
323 327 324 320 325 328 325 322 322 321 322 326 328 327 326 328 328 326 328 329 329 328 328 331 332 328 326 325 322 321 323 325 325 323 321 321 325 325 322 320 322 328 325 320 328 336 333 329 325 322 325 328 327 327 325 321 321 325 326 326 325 321 315 314 315 314 315 316 319 319 315 316 319 318 317 316 314 317 319 316 312 310 309 310 311 310 309 309
323 325 324 319 322 323 320 320 322 322 323 327 329 326 325 329 328 326 327 329 335 331 325 330 334 329 327 327 324 323 324 323 322 324 323 321 323 325 323 322 323 325 323 320 325 330 330 329 328 324 324 327 326 325 326 324 322 322 323 322 323 322 318 315 316 315 314 316 320 318 316 317 317 316 316 316 314 316 317 314 311 311 310 311 312 310 309 309
321 323 323 322 324 324 323 323 322 323 325 326 326 327 329 329 327 327 328 328 331 331 326 327 331 330 330 328 326 326 327 325 322 323 323 321 324 326 323 323 325 321 320 322 323 323 324 328 328 324 324 329 328 325 327 327 325 323 322 319 318 320 317 314 316 316 313 314 317 315 316 320 318 314 315 316 315 315 313 312 311 311 311 313 312 311 310 309
317 317 318 322 327 326 323 323 321 322 325 325 324 326 330 332 330 329 329 328 328 331 331 328 328 332 333 329 327 329 329 330 328 327 326 322 324 328 324 323 326 323 320 322 324 324 323 325 326 323 324 330 328 323 326 327 324 322 322 321 319 319 317 316 318 317 314 316 317 313 316 325 323 315 314 316 316 314 312 312 312 311 312 313 311 310 310 309
316 317 317 320 326 325 321 321 322 321 323 323 322 322 325 330 332 329 327 329 330 331 335 332 326 329 331 328 327 327 326 327 327 327 326 321 320 324 322 320 323 325 325 324 324 326 325 326 328 324 322 329 331 325 324 324 320 321 326 324 319 319 319 316 315 314 314 317 319 318 321 325 320 315 313 313 314 313 312 312 312 311 312 312 310 310 310 310
Wind_Speed
21 22 22 23 22 22 21 20 20 18 16 13 11 10 9 8 8 8 9 11 12 13 13 14 15 16 17 17 18 18 17 14 13 10 8 9 9 9 7 4 5 7 8 10 10 9 12 11 10 14 9 2 3 4 3 3 2 3 3 2 1 2 2 3 1 2 3 1 5 6 6 5 5 7 3 5 9 12 16 14 13 14 11 11 12 12 12 16
21 21 21 22 23 23 23 21 21 19 16 14 12 10 9 8 8 8 9 11 12 13 14 14 15 16 17 18 19 20 17 14 12 9 10 10 7 7 6 4 6 8 10 11 10 6 6 7 9 13 5 2 2 2 1 2 2 3 3 2 2 4 4 4 3 3 3 2 3 6 4 3 2 3 2 4 5 8 13 11 12 14 10 9 10 11 13 17
21 21 21 21 22 23 24 23 22 20 17 15 13 11 9 9 8 9 10 11 13 14 14 15 15 16 17 19 20 19 15 10 7 6 7 7 6 5 5 4 7 9 11 12 11 8 6 10 11 9 3 2 4 2 1 2 1 2 3 2 4 5 3 1 4 4 3 3 2 5 5 4 5 2 1 3 4 7 9 8 9 10 8 7 6 8 11 15
21 21 21 21 21 22 24 24 23 22 19 16 15 13 10 9 9 9 10 12 13 14 14 15 15 17 17 19 20 16 9 5 3 4 3 4 4 4 4 4 7 9 11 13 14 13 11 12 10 5 2 3 3 2 3 3 2 1 4 4 6 3 1 1 4 5 4 4 3 1 4 5 7 3 1 3 5 5 4 8 10 11 9 8 6 6 9 13
22 22 22 21 21 22 23 24 24 23 21 17 16 14 11 10 10 10 11 12 13 14 14 14 15 17 17 19 17 10 4 4 3 6 5 4 5 5 5 5 7 10 12 14 16 16 14 10 5 1 1 3 3 2 3 4 3 1 2 5 5 2 1 4 4 4 3 3 3 2 3 2 4 3 3 6 7 3 4 9 13 12 9 9 8 7 9 10
23 23 23 22 22 22 22 23 23 23 22 19 16 14 12 11 10 11 11 12 14 14 14 14 16 16 17 18 12 4 2 1 5 6 6 7 6 6 5 6 8 10 13 15 15 13 10 5 2 1 0 2 4 3 3 4 5 2 3 2 3 2 0 3 2 2 3 4 3 0 1 1 3 3 2 7 7 7 10 11 12 11 9 11 10 8 9 10
23 24 24 24 23 23 23 23 23 23 23 21 18 15 13 12 11 11 12 13 14 14 14 14 15 15 17 15 7 2 3 3 8 6 6 6 6 4 3 6 8 10 13 14 11 7 6 4 2 1 1 4 4 4 3 2 3 4 1 2 1 1 3 0 2 1 4 2 3 2 2 2 3 2 3 5 3 8 14 12 13 12 11 13 11 10 9 9
23 24 24 24 24 24 24 24 24 23 23 22 20 16 13 12 11 11 13 14 14 14 14 14 15 15 17 12 5 3 1 5 6 7 5 2 2 2 4 8 9 11 13 14 11 7 6 4 3 4 3 4 3 4 6 5 4 4 2 2 3 2 2 2 3 2 0 2 4 1 4 4 3 1 3 3 1 7 13 13 13 12 11 12 11 10 8 8
23 24 25 25 25 25 25 25 25 24 24 24 21 17 13 12 11 12 13 14 14 14 14 14 14 14 15 9 4 3 4 4 4 8 5 4 3 1 6 8 10 12 13 15 14 10 6 1 3 3 2 4 4 6 6 4 3 1 2 1 2 4 3 2 4 3 2 2 1 2 4 6 3 1 3 2 2 5 14 16 13 13 12 10 10 9 8 8
24 25 25 25 25 26 26 26 26 26 25 25 22 17 13 12 12 12 13 15 14 14 14 13 14 13 12 6 5 3 4 4 8 8 4 5 4 2 6 7 10 14 12 11 12 7 2 3 3 2 2 2 5 6 5 3 1 5 2 1 4 5 6 1 2 4 2 1 2 1 0 5 4 4 2 5 4 10 17 16 12 13 12 10 9 8 7 7
25 26 26 26 26 26 26 27 27 27 27 26 22 16 12 11 12 12 13 15 14 13 13 12 13 11 8 3 3 2 4 8 10 8 3 4 6 5 5 5 9 12 8 6 11 9 5 6 5 4 2 1 4 6 5 2 2 5 2 4 7 6 6 4 3 5 1 2 5 3 2 5 6 5 1 5 5 13 18 14 12 13 10 10 9 7 7 6
26 27 27 28 27 27 27 28 28 29 29 26 21 15 12 11 11 12 13 14 14 13 12 12 11 8 6 2 3 5 2 5 11 9 5 6 9 7 5 6 8 10 6 3 9 10 7 8 7 4 1 1 3 4 4 4 4 4 4 4 6 6 5 4 3 4 4 2 6 7 5 6 5 1 2 2 6 12 16 14 13 12 9 9 8 7 6 6
28 28 29 29 29 29 29 29 30 30 29 25 20 15 13 11 11 11 12 13 11 11 10 10 8 6 5 2 6 7 5 6 10 13 10 9 11 10 8 9 10 10 9 7 8 7 6 5 3 1 2 1 2 3 3 5 4 4 3 4 3 6 4 4 2 4 5 1 4 9 4 5 2 2 1 4 8 13 15 13 11 10 9 7 6 6 6 7
29 29 30 30 30 30 30 31 31 31 29 24 19 15 13 12 11 11 11 10 8 8 8 8 6 2 3 3 10 10 9 9 8 15 15 12 14 15 14 14 15 14 12 13 12 8 8 8 3 2 2 1 1 4 5 5 3 3 3 2 3 3 5 5 3 3 3 3 3 10 1 5 4 4 2 4 9 14 13 11 10 9 8 7 6 7 7 8
31 30 30 31 31 31 32 32 32 31 28 23 19 15 13 11 11 12 10 7 6 6 6 6 4 1 1 6 10 9 6 7 7 13 14 12 14 11 8 11 17 18 14 14 16 13 8 4 1 1 2 1 1 3 4 4 3 3 3 4 3 1 5 7 4 2 2 4 3 8 1 4 4 6 2 5 9 12 11 11 11 9 9 8 7 7 7 7
32 32 31 32 32 32 32 32 32 30 27 22 18 14 13 13 13 12 8 4 4 5 4 4 3 2 1 5 6 5 3 6 7 10 12 11 10 7 5 5 12 17 17 16 17 16 7 1 0 2 1 3 2 2 3 3 4 3 3 1 4 2 3 5 4 0 2 2 3 5 2 2 3 3 4 8 9 11 11 11 11 10 9 8 7 7 7 5
33 32 32 32 32 33 32 32 31 29 25 20 18 17 15 14 12 8 5 2 2 4 3 2 3 4 2 5 5 4 4 10 9 8 11 10 8 8 5 4 5 8 10 10 11 11 4 1 1 0 2 2 2 3 4 4 4 3 2 0 3 2 1 3 4 4 1 2 1 3 2 3 4 1 7 9 9 10 10 10 10 9 8 7 6 7 6 6
33 32 33 32 32 33 32 31 29 27 23 19 20 19 13 10 7 3 2 0 1 3 2 1 2 3 3 5 4 4 5 10 9 5 8 9 10 11 7 4 4 3 4 4 3 5 1 1 0 2 3 3 3 4 4 1 3 3 3 1 2 2 2 2 4 3 3 1 1 5 2 3 2 3 7 8 8 9 8 8 9 8 8 7 6 6 6 6
33 33 33 33 33 32 32 31 27 24 21 19 21 16 9 10 6 3 3 1 1 1 2 2 2 2 4 6 5 5 4 7 6 3 6 8 10 11 9 5 4 3 2 3 3 4 3 1 2 1 1 2 2 4 4 3 4 1 4 3 2 0 2 4 4 2 3 3 4 7 5 4 1 3 6 7 8 9 7 7 7 7 8 7 6 5 6 7
34 33 33 33 33 32 31 30 24 21 19 20 23 14 6 8 5 2 3 0 3 5 6 5 4 3 6 6 3 3 5 3 3 4 5 6 7 5 5 3 2 2 0 3 4 3 3 3 2 2 5 4 2 4 4 1 1 3 4 3 2 2 2 4 4 4 2 4 5 8 6 3 1 4 4 5 8 8 7 8 8 8 7 6 6 6 6 7
34 34 33 33 32 31 30 27 21 18 16 19 21 10 1 4 3 3 5 4 6 9 9 9 8 8 11 12 8 5 3 1 1 3 4 4 2 0 3 2 3 3 3 5 4 1 5 5 3 6 6 4 1 2 2 3 4 5 5 3 3 1 2 4 1 3 3 5 3 7 7 6 6 7 7 5 7 5 6 8 9 9 7 5 7 7 7 6
35 34 33 33 32 30 28 24 17 13 14 18 15 5 3 5 3 4 4 4 8 7 8 11 9 9 14 18 14 3 2 2 4 4 4 2 2 1 1 3 3 3 4 3 3 4 5 2 5 4 1 3 7 7 6 6 6 5 3 4 2 2 2 4 1 1 3 3 0 3 4 4 7 7 8 7 2 3 5 7 8 10 8 6 6 6 6 6
34 35 34 33 32 29 27 19 11 11 16 16 11 6 9 9 10 10 4 1 7 6 5 7 5 6 8 9 6 1 3 1 2 4 3 0 2 2 2 3 3 2 5 5 3 4 3 3 4 2 7 9 9 8 8 7 5 4 3 4 1 3 1 2 3 2 2 1 3 3 3 1 4 6 6 7 5 2 6 6 6 9 9 7 7 6 7 7
34 36 35 34 32 29 26 14 8 15 16 10 8 13 16 15 17 14 4 1 4 6 6 6 4 3 3 2 1 2 1 1 2 2 2 2 0 1 3 2 4 4 5 4 3 5 2 5 3 6 9 10 10 7 7 6 4 2 1 4 2 3 2 4 2 3 3 4 2 4 3 2 2 4 5 7 8 4 4 7 7 8 8 7 6 6 6 7
34 34 35 35 32 30 23 7 8 19 13 5 9 19 19 17 20 15 4 1 3 5 5 3 1 0 0 1 3 2 2 1 1 3 3 3 3 2 2 1 3 2 6 4 3 4 0 5 1 8 8 9 8 5 4 5 2 4 3 4 4 3 4 4 1 4 4 4 2 2 3 4 3 3 3 6 6 6 3 5 7 8 8 6 6 6 6 6
33 33 35 34 31 30 18 3 10 19 8 4 12 19 18 19 20 12 4 3 3 4 2 1 2 0 1 1 3 2 4 3 3 4 3 2 3 3 2 2 2 1 4 2 2 1 1 3 3 8 7 7 7 3 1 4 3 2 4 3 2 2 2 1 3 3 1 1 3 2 4 3 3 1 2 4 5 7 8 4 4 6 6 6 6 6 6 6
33 32 34 33 31 27 12 2 13 14 2 6 16 18 19 19 16 7 4 4 3 2 1 2 1 1 1 3 3 5 3 4 4 2 2 3 2 3 2 3 2 2 3 3 3 2 1 4 6 8 7 6 5 2 2 2 5 1 6 3 2 1 1 2 4 3 3 3 2 5 3 2 1 2 2 2 3 6 7 7 4 5 5 7 7 5 6 6
33 32 33 32 29 21 8 8 13 7 3 12 17 19 20 17 9 3 5 3 2 1 1 2 1 1 2 2 2 3 3 3 0 4 3 5 3 4 3 2 1 3 4 4 2 5 1 3 3 6 6 4 3 2 3 2 4 4 6 2 1 0 2 3 4 4 2 3 2 6 4 3 2 4 2 2 1 4 4 7 3 6 6 8 8 5 7 6
32 32 33 32 26 15 10 12 9 5 10 15 17 20 19 11 4 4 5 2 2 2 1 1 2 2 1 3 3 0 0 1 2 5 2 5 4 3 3 2 2 4 6 4 1 5 1 3 5 6 5 1 2 2 3 5 1 5 3 2 2 3 1 1 4 4 3 4 1 5 3 2 2 3 2 1 2 3 1 8 4 5 7 8 7 6 7 6
32 31 32 31 23 13 12 12 6 7 13 15 18 19 13 5 4 5 3 0 2 3 1 1 2 3 3 3 4 2 2 1 2 1 3 4 4 4 2 2 4 5 5 5 3 3 2 2 3 4 3 2 3 2 3 5 1 2 4 4 5 5 4 3 3 4 4 3 3 5 2 2 1 3 2 1 1 2 2 5 4 4 6 5 5 6 6 5
32 30 31 28 19 12 10 8 6 11 13 15 18 13 5 3 4 5 1 3 2 5 5 2 2 3 4 3 2 2 1 2 2 3 4 4 6 6 4 4 5 4 5 6 7 6 5 3 3 3 2 2 4 2 3 4 4 5 5 4 3 4 4 4 4 4 4 1 4 3 1 3 1 3 2 3 2 2 5 5 4 4 8 8 8 7 6 5
31 30 28 22 16 12 8 5 8 10 12 14 14 6 4 4 3 2 2 3 1 3 5 4 3 4 2 2 2 3 2 2 2 3 3 3 4 4 3 2 2 4 4 4 5 6 4 3 3 3 3 3 4 3 5 5 6 6 4 5 5 3 4 3 3 3 2 2 3 2 1 2 1 4 3 6 7 8 8 4 2 5 10 9 8 7 5 4
31 30 26 18 14 11 7 6 8 10 13 14 8 3 5 5 1 2 2 2 0 4 5 3 4 4 2 3 3 4 3 2 2 3 3 3 4 3 3 2 4 4 1 1 3 4 4 5 5 4 4 3 4 3 3 4 5 5 3 3 4 2 3 1 3 1 1 2 2 2 0 0 2 2 1 5 8 8 3 2 2 7 9 7 6 5 4 4
30 28 23 15 9 7 6 6 6 9 14 11 5 4 6 4 1 3 2 2 2 3 3 3 5 4 3 3 2 2 3 2 3 3 3 3 4 3 3 5 5 5 3 1 2 2 1 3 4 3 2 2 2 3 4 2 2 2 1 4 4 3 3 1 2 1 2 2 1 3 2 0 1 2 3 2 4 3 4 4 4 8 6 5 5 4 4 4
29 26 17 9 5 3 5 5 4 8 10 6 5 5 5 2 3 2 2 3 2 2 4 5 4 4 4 3 3 3 3 1 4 4 3 3 4 2 1 2 3 3 4 2 0 1 2 3 5 3 2 1 1 1 3 5 2 2 2 4 1 2 4 1 2 4 3 1 2 3 1 2 1 3 6 3 3 5 7 5 5 7 5 5 5 4 4 5
29 23 10 5 5 3 2 3 3 7 6 5 6 4 1 3 3 1 2 2 1 1 4 6 5 5 4 4 5 5 2 2 4 5 3 3 4 2 0 1 2 2 4 3 1 0 2 3 6 2 4 1 2 1 2 5 1 1 3 2 3 3 6 2 1 1 3 3 2 1 0 3 3 3 5 3 6 8 7 5 6 6 4 6 6 5 5 5
28 21 8 4 5 2 2 2 3 5 5 5 5 1 2 3 2 2 2 2 1 1 4 4 3 3 2 2 4 6 5 4 5 4 2 2 3 3 2 1 1 1 2 4 1 2 3 2 6 2 4 2 1 4 5 4 3 3 1 3 2 2 3 3 1 3 4 3 1 1 1 1 2 2 4 4 7 8 6 5 5 5 5 6 5 5 4 3
22 15 7 5 2 3 4 2 2 3 4 5 3 1 2 2 3 3 3 3 2 3 4 2 0 1 2 1 2 5 4 4 4 3 1 1 2 2 2 1 2 2 1 3 2 1 3 1 6 2 3 2 3 6 5 6 4 4 2 2 2 3 1 2 2 1 2 2 1 2 2 0 1 2 3 4 5 6 4 4 5 5 6 6 5 5 4 2
13 6 4 3 2 3 3 1 2 3 5 4 1 2 1 3 4 4 5 5 1 3 3 1 1 2 2 2 1 3 3 2 2 2 1 1 1 1 0 0 2 4 2 4 4 1 3 3 4 5 3 2 4 5 2 4 5 3 2 3 3 3 2 0 0 1 2 2 1 0 0 0 2 3 2 3 3 5 4 4 5 6 6 5 5 4 5 5
4 2 2 2 2 1 3 3 3 4 4 1 2 2 2 2 4 7 9 5 1 2 2 1 1 2 1 1 0 1 2 1 1 1 1 1 1 2 2 1 1 4 4 5 3 1 3 3 2 6 6 4 2 0 3 2 1 3 4 4 3 2 1 1 0 1 3 3 2 2 1 2 2 3 2 3 4 4 5 5 4 5 5 5 3 3 4 6
3 2 2 2 3 3 4 4 3 2 2 0 1 2 2 1 3 8 8 3 1 2 3 3 2 3 2 2 1 1 1 2 2 1 0 1 2 1 3 2 2 1 4 5 4 2 1 2 1 3 5 2 2 3 3 6 5 4 3 2 1 1 3 3 1 3 2 3 2 3 2 3 3 2 2 4 5 4 5 6 5 3 3 3 2 3 5 6
3 1 3 4 3 4 4 4 2 1 2 0 2 3 2 0 2 5 6 4 3 2 3 3 2 2 2 1 1 1 1 1 1 2 1 1 3 3 4 3 3 2 3 3 2 1 2 3 2 2 2 3 5 2 2 4 5 5 2 3 3 2 4 5 2 3 1 2 1 2 2 4 3 3 3 2 5 5 5 5 6 4 3 3 2 4 6 6
2 2 5 6 3 2 5 3 4 3 1 3 3 4 3 1 1 3 5 5 4 3 3 2 1 2 1 1 2 2 2 1 0 1 1 1 1 3 5 4 4 3 4 2 2 1 1 3 3 2 3 3 4 4 3 3 6 5 1 1 4 2 3 5 5 3 1 2 1 2 1 4 4 3 4 1 0 1 2 4 6 4 1 1 1 3 5 5
0 4 4 5 3 2 4 2 2 3 3 4 3 4 3 1 1 2 3 4 3 3 3 2 1 2 1 2 3 2 2 2 1 1 0 0 2 4 3 4 4 3 2 3 2 1 0 1 2 2 3 5 5 5 4 4 4 2 1 1 3 4 5 3 1 3 2 1 3 3 2 5 4 4 4 2 2 3 2 0 3 3 2 3 1 3 5 5
2 2 3 5 4 3 2 3 3 1 4 3 3 5 4 2 2 0 2 2 3 2 1 2 2 1 1 2 2 0 2 3 0 2 1 1 2 2 2 3 5 4 2 5 4 3 2 2 3 4 2 0 2 3 3 2 1 0 1 0 1 4 6 3 2 3 0 2 2 4 4 5 5 6 6 4 4 4 4 4 2 1 2 2 1 4 5 5
2 1 3 5 5 4 1 1 4 2 3 2 3 4 4 3 3 2 3 2 3 4 1 1 3 3 3 2 2 2 1 1 1 0 1 2 2 2 3 4 4 3 5 6 5 4 3 2 2 5 6 5 5 6 5 2 1 2 1 2 1 3 5 5 4 2 3 2 1 4 5 2 6 6 6 6 4 3 5 4 2 2 2 1 3 4 5 4
2 1 1 2 3 3 3 4 5 4 3 0 1 3 2 3 3 4 4 2 2 4 2 1 3 4 2 2 2 1 1 2 2 1 1 2 2 2 2 4 3 4 7 6 4 4 4 2 1 4 4 5 7 7 5 2 3 5 5 5 4 3 6 6 3 3 4 4 4 6 5 1 6 6 6 7 5 3 5 5 5 3 1 1 3 5 6 4
1 0 1 2 0 1 2 3 4 6 5 2 1 2 1 2 3 2 3 3 3 3 2 2 3 3 1 2 2 1 1 3 2 1 1 2 1 3 3 1 2 1 5 4 2 4 5 0 3 2 3 5 5 6 6 3 3 3 6 7 6 5 6 5 4 5 6 5 5 6 5 4 6 6 7 7 5 5 6 6 3 1 1 2 4 6 5 4
2 1 2 2 1 2 3 4 4 5 6 4 2 2 1 1 2 2 3 2 4 3 2 1 4 4 4 3 4 1 1 1 2 3 2 1 1 1 1 2 4 2 2 3 1 3 4 2 4 2 2 6 6 6 7 4 2 1 2 4 5 6 7 6 3 3 5 4 6 5 4 7 7 7 8 7 5 6 4 1 1 3 4 3 5 6 5 3
2 0 2 3 3 2 3 3 3 4 6 4 3 3 1 1 1 3 2 2 0 4 1 1 4 4 4 3 4 2 4 5 4 4 3 1 2 1 2 2 2 1 1 2 1 2 3 2 3 2 1 6 6 4 5 2 3 3 1 1 4 5 4 2 1 2 2 4 4 2 1 7 6 5 7 5 2 2 2 3 4 4 4 4 6 5 4 2
2 1 0 2 2 3 2 2 3 3 4 4 3 3 2 2 4 2 2 2 5 3 2 3 4 3 4 5 3 3 6 5 6 6 5 4 3 3 3 3 3 3 1 2 1 2 3 1 1 3 2 5 5 4 5 4 4 4 1 3 5 5 3 3 3 4 5 4 2 2 1 6 5 3 3 2 2 1 3 5 5 4 3 5 6 4 2 3
6 2 2 3 0 3 3 3 3 3 2 3 4 4 3 4 4 1 2 4 3 4 6 6 3 0 3 5 3 4 6 5 6 7 6 5 4 5 4 5 4 4 4 3 2 2 3 3 2 2 1 4 6 4 3 4 6 3 5 7 8 5 3 3 3 5 6 6 6 3 5 5 4 2 2 0 1 1 4 5 5 4 4 4 4 3 3 4
Wind_Direction
6 6 4 3 2 2 3 2 0 0 2 358 358 359 352 345 335 331 327 327 328 328 332 336 342 349 351 352 349 346 341 333 325 312 294 286 272 256 253 261 280 291 297 305 316 325 328 325 322 329 322 255 188 225 235 206 161 75 94 97 256 251 255 240 103 117 149 349 327 343 15 45 350 326 338 23 41 76 84 77 76 72 69 71 82 91 81 69
3 5 5 3 1 1 1 3 2 0 358 356 358 356 350 346 335 330 326 325 326 324 328 332 339 345 347 348 346 344 339 331 323 300 280 276 259 238 235 253 276 295 305 315 325 337 336 310 320 337 327 191 238 228 216 243 141 112 129 111 223 211 227 227 141 126 115 108 324 343 3 27 328 287 359 39 45 84 94 93 92 86 79 77 81 87 81 73
0 2 4 4 2 1 360 0 1 360 357 356 357 354 350 349 340 333 330 327 324 322 326 331 338 342 346 347 344 342 335 330 324 296 274 253 240 240 226 243 275 295 305 314 323 321 300 289 302 313 276 229 265 223 178 256 181 153 115 102 238 218 229 227 112 116 131 127 33 347 343 353 322 281 102 104 80 74 100 113 103 99 102 97 86 84 79 74
0 0 1 2 3 2 359 357 358 358 357 353 352 351 349 348 344 338 334 329 324 323 326 332 338 341 347 346 342 339 335 352 323 276 241 229 269 277 233 247 277 290 301 308 314 312 302 293 289 272 251 288 269 147 171 239 198 154 123 160 235 231 260 228 119 127 145 116 99 18 11 350 319 327 25 114 84 38 87 122 120 122 123 114 103 89 79 72
1 360 1 1 2 2 359 356 355 355 355 351 347 345 345 345 344 341 338 334 328 326 329 334 338 341 346 345 340 334 349 26 275 244 223 243 307 300 258 264 273 285 297 304 308 311 313 302 287 293 345 279 278 117 194 223 136 106 208 189 216 188 194 222 140 122 161 97 74 68 52 315 315 339 353 74 93 65 95 120 122 126 129 122 117 106 85 71
0 360 1 360 1 1 359 357 354 353 353 349 343 338 340 340 340 343 341 336 332 331 334 336 339 342 346 348 342 338 79 25 248 241 238 251 300 299 270 268 275 290 294 301 308 309 317 310 309 7 323 307 313 303 229 216 130 113 277 208 195 184 132 238 143 124 153 78 28 127 182 252 25 350 5 77 103 115 118 124 118 118 123 117 108 95 78 67
0 1 1 1 1 360 358 357 354 352 350 348 342 333 332 332 335 341 339 336 334 335 337 338 341 341 346 354 352 23 116 238 252 239 244 258 289 291 276 286 290 297 297 305 310 311 326 329 340 49 42 6 341 311 310 298 92 105 266 336 293 288 29 204 203 188 136 86 258 219 8 346 47 354 49 83 136 117 117 119 111 112 108 103 93 84 80 72
1 1 1 1 1 358 357 355 353 351 349 347 341 331 325 325 328 331 334 333 331 336 338 339 341 342 349 360 13 1 277 262 248 203 212 255 274 268 300 316 314 305 305 308 306 299 305 329 13 44 29 345 1 348 340 346 20 79 177 315 337 313 9 175 214 275 162 253 252 1 346 281 232 195 68 84 157 110 113 108 104 104 93 91 90 88 84 76
2 1 0 0 359 357 355 352 351 349 346 345 340 331 322 320 321 324 328 326 326 333 334 338 339 343 353 1 50 11 293 271 193 173 153 126 132 290 296 315 321 310 308 306 302 291 279 356 35 36 28 312 1 1 340 14 4 309 179 229 334 312 313 207 218 276 263 252 291 33 322 293 277 116 68 353 342 85 107 107 105 101 92 88 86 85 81 77
1 360 359 358 358 356 353 351 349 346 344 343 339 331 321 317 315 316 321 321 323 326 330 336 334 342 354 7 61 10 286 208 178 171 127 129 150 261 282 299 306 298 292 297 310 317 322 26 9 9 47 340 359 345 330 53 309 279 269 336 336 316 304 240 219 292 243 224 340 160 269 338 353 79 73 302 349 73 98 108 109 101 96 94 86 82 77 76
360 358 357 357 357 355 352 350 347 345 343 342 340 332 322 316 312 312 316 320 320 322 327 328 330 341 348 27 83 279 228 184 194 189 155 177 197 226 263 281 283 282 280 302 319 331 8 10 13 38 33 353 350 329 324 24 299 290 351 3 342 340 331 355 7 329 45 53 360 66 76 6 19 61 183 292 20 82 99 103 97 94 92 92 86 80 73 71
359 357 356 356 355 353 352 349 347 345 342 342 341 334 326 319 314 312 313 317 319 320 323 323 332 345 347 20 189 241 221 207 223 205 190 216 221 235 271 277 261 267 286 323 307 312 350 1 23 51 273 336 358 323 335 352 333 336 63 44 338 3 358 343 3 360 65 31 352 42 32 353 16 50 231 341 42 79 97 98 93 94 90 88 85 80 77 70
359 356 354 354 354 353 351 349 346 344 343 343 342 337 330 323 318 313 314 317 316 317 319 325 333 345 7 345 245 273 313 281 232 203 206 228 235 242 253 263 257 257 272 276 280 298 317 313 2 34 258 30 342 281 343 357 349 342 47 96 357 9 337 302 352 23 55 345 6 58 28 304 308 261 312 53 68 76 91 102 100 100 97 95 93 85 78 66
359 356 354 352 353 353 351 349 346 344 343 342 341 339 330 324 316 313 319 320 317 320 322 329 328 345 59 275 276 298 302 288 238 209 216 228 233 238 246 255 255 251 252 255 262 277 283 276 287 323 302 119 270 303 337 346 357 346 1 50 37 13 285 301 346 34 49 273 61 72 11 267 264 271 337 65 88 88 97 108 105 104 104 98 90 82 73 61
360 357 354 352 352 352 351 349 346 344 342 340 340 336 330 324 315 318 328 326 320 320 325 338 333 13 34 287 291 313 294 277 254 224 222 226 229 239 255 254 245 242 239 243 255 262 266 279 299 292 300 325 27 344 335 337 355 16 21 343 339 342 280 310 336 83 101 279 65 89 234 269 256 261 343 70 93 93 96 108 111 108 105 101 93 85 79 65
1 358 355 352 351 352 351 349 347 344 341 339 338 332 328 320 312 323 332 330 326 317 339 9 17 61 20 288 299 325 271 242 251 232 225 226 230 249 288 269 240 235 235 241 252 257 256 340 115 171 292 342 60 68 26 11 349 359 55 306 289 325 307 312 327 5 172 281 46 103 190 262 250 262 48 72 95 94 92 106 113 112 110 107 104 93 87 77
1 358 355 352 351 351 351 350 348 344 340 340 337 334 334 323 312 325 335 348 344 308 326 348 9 34 268 272 295 301 229 224 242 240 232 230 232 256 280 278 253 240 247 252 248 252 257 68 225 141 359 350 84 93 54 14 331 327 24 172 273 288 263 294 311 312 98 141 33 65 146 210 231 106 71 75 91 93 92 105 112 116 112 103 105 99 95 89
0 358 355 352 350 350 351 351 349 343 339 339 340 340 349 348 334 358 23 36 327 312 334 318 19 39 280 277 270 260 221 213 225 231 227 225 230 256 271 258 276 317 326 322 255 232 218 3 95 73 351 354 47 84 77 329 234 273 325 16 329 298 245 268 272 308 27 77 31 36 12 254 278 69 85 79 85 87 85 101 110 113 108 107 108 104 106 95
359 358 355 352 350 350 350 352 351 344 338 344 351 351 5 14 17 77 94 117 48 330 300 261 137 110 283 277 247 256 257 205 203 214 215 224 236 261 280 272 294 347 359 336 286 231 181 42 16 74 270 306 73 125 146 206 204 262 346 54 98 196 267 266 253 288 37 51 42 31 336 274 275 73 92 91 90 86 74 82 99 106 107 110 108 108 110 96
358 357 354 351 350 349 351 354 352 346 345 350 356 359 10 18 19 358 354 245 215 223 242 239 188 222 287 285 279 316 301 229 198 219 222 246 246 268 307 301 329 13 233 245 255 247 129 91 321 231 209 219 189 162 173 190 126 77 48 60 92 112 274 278 287 313 57 85 26 13 353 310 351 13 48 90 92 87 85 81 82 94 105 115 115 113 103 92
356 356 353 350 349 349 352 354 351 351 350 349 356 9 354 355 27 329 322 296 258 228 234 241 218 234 262 271 293 352 348 283 291 247 240 270 236 298 328 3 15 338 271 249 252 312 82 97 243 226 203 211 46 32 18 29 52 74 93 76 32 43 273 270 260 325 42 87 3 3 17 358 356 351 343 30 75 92 108 101 94 101 108 113 111 104 95 89
354 354 352 350 348 349 352 353 353 355 350 348 359 20 288 316 15 343 321 309 291 250 235 249 233 235 253 261 270 306 46 357 347 319 256 240 83 89 309 55 50 289 291 325 13 35 66 130 233 230 164 37 25 25 41 57 66 65 80 86 27 299 292 303 294 40 48 91 336 17 49 354 344 340 337 0 53 159 129 118 120 120 121 118 114 110 104 101
353 352 352 350 346 347 351 354 359 1 356 356 1 351 334 348 4 349 333 270 294 281 247 247 235 232 244 251 254 73 47 22 22 329 298 43 41 82 106 54 24 324 342 9 74 89 88 223 235 75 66 61 42 29 50 56 60 68 77 99 267 276 103 305 312 49 48 93 136 120 103 39 350 349 342 336 304 223 115 109 113 118 127 128 124 128 123 121
351 351 351 349 345 346 350 359 16 3 360 15 14 354 358 2 358 356 0 191 293 284 249 236 231 220 211 219 260 88 95 193 133 273 308 93 83 47 101 52 20 17 334 338 91 109 137 238 227 73 72 81 67 37 54 59 24 340 191 146 200 273 183 214 243 74 37 23 103 107 51 346 8 22 337 321 322 330 102 101 87 96 117 122 112 115 118 120
350 350 349 349 345 343 348 11 19 358 356 39 12 352 357 353 345 355 24 55 320 286 260 262 313 293 168 213 233 163 123 359 80 205 233 148 146 39 58 41 46 4 308 329 59 88 132 262 230 77 69 79 79 52 75 102 25 322 267 201 204 238 248 243 156 80 38 353 266 124 68 307 329 52 314 310 335 345 23 94 101 103 118 118 105 104 96 94
347 348 347 348 345 343 349 33 353 350 348 13 355 345 347 343 339 352 45 57 340 288 270 352 354 301 323 206 207 82 57 327 260 202 198 146 128 90 40 338 31 305 293 345 46 77 331 310 59 87 82 78 79 61 94 124 94 339 267 264 274 231 246 299 76 76 75 251 281 70 121 250 310 102 250 301 335 358 3 5 73 104 120 112 105 106 96 95
345 345 346 346 345 344 350 332 336 346 344 330 340 338 338 338 340 358 63 46 2 315 280 290 339 61 255 201 157 79 64 261 270 254 190 126 88 75 43 320 8 319 284 69 26 286 265 6 42 74 76 70 62 20 297 124 97 296 275 310 356 341 151 139 105 104 175 177 347 5 89 138 288 244 267 332 344 20 6 332 14 87 110 108 112 114 109 122
342 344 344 343 344 343 339 325 330 341 334 324 329 333 335 338 344 44 88 63 335 338 358 272 295 327 281 272 112 115 190 207 112 277 235 111 63 53 64 251 148 349 341 66 6 266 254 41 69 85 72 62 56 8 326 61 86 275 281 332 63 201 183 174 123 121 143 109 355 330 18 89 248 266 333 14 107 57 354 304 348 72 85 107 124 125 119 128
339 342 343 341 341 340 333 328 319 322 332 327 329 333 333 337 6 65 81 80 299 306 20 354 313 291 324 357 339 23 25 94 143 256 263 84 45 54 88 250 102 30 355 55 148 251 237 144 157 110 87 88 79 44 36 72 97 268 297 25 23 31 47 107 105 114 65 64 271 297 4 89 266 291 343 3 162 125 271 289 321 77 93 114 126 114 106 98
336 339 341 338 337 334 329 325 311 323 331 329 331 332 330 344 62 60 49 73 291 304 318 10 306 305 53 40 330 347 49 259 216 315 31 57 10 18 54 15 68 65 1 26 50 301 305 161 151 89 102 158 118 97 69 80 27 317 38 32 14 18 24 34 66 90 64 41 261 282 11 109 267 291 276 190 131 116 173 282 306 81 88 91 92 89 91 88
334 337 339 336 331 326 322 323 325 328 330 332 331 333 349 25 64 79 81 244 287 323 323 305 287 336 44 69 337 342 38 299 310 39 37 24 16 11 17 24 40 46 14 10 10 349 356 26 16 38 60 80 88 57 13 33 29 48 55 42 34 360 5 18 2 44 72 312 262 261 7 83 116 274 261 126 104 171 192 251 299 58 66 63 67 75 84 87
333 336 337 333 325 315 303 316 339 340 339 338 336 351 68 45 33 85 241 270 317 298 289 279 288 323 15 64 358 334 357 347 358 63 74 56 44 26 35 96 103 44 14 352 7 0 350 356 359 13 2 27 80 35 350 358 24 47 46 52 63 3 6 21 339 26 86 256 251 220 146 67 214 249 220 156 172 199 200 239 304 81 80 76 78 80 86 89
333 336 335 329 321 316 311 331 349 355 347 343 352 47 75 72 31 265 270 313 198 227 243 275 306 317 37 54 354 334 6 25 14 48 81 99 77 31 14 75 109 94 106 234 40 16 334 331 354 15 346 357 86 78 3 347 12 27 27 77 97 73 50 354 297 12 327 240 237 269 51 14 285 287 210 175 198 208 176 44 72 98 92 97 106 109 112 104
333 336 333 324 314 318 338 353 1 358 345 347 31 60 56 76 239 278 313 291 224 221 250 297 315 336 55 69 352 5 32 344 335 30 47 69 72 46 16 18 41 91 116 101 78 76 37 318 331 5 313 319 56 120 154 137 43 8 79 113 114 138 134 203 220 160 259 236 268 335 9 76 291 326 318 270 217 189 104 87 95 93 92 106 104 96 96 86
334 337 335 328 323 326 349 4 12 357 347 4 61 63 69 112 254 306 306 267 256 301 313 327 360 30 30 9 4 51 100 300 335 21 33 56 80 103 139 347 349 83 96 60 302 106 74 265 267 317 339 21 86 198 140 100 47 321 86 84 45 193 150 161 201 175 187 178 1 354 342 273 275 272 292 324 77 95 102 105 85 77 72 76 66 42 47 54
336 343 348 353 350 342 359 18 15 358 1 55 68 57 121 202 221 197 234 252 266 319 341 358 26 43 11 352 355 353 16 15 6 19 24 64 71 39 154 244 311 53 110 119 183 27 46 286 264 340 9 37 154 286 37 88 133 310 43 32 262 189 131 116 293 329 87 89 1 359 145 306 327 299 300 14 86 90 89 82 73 71 59 56 49 30 36 54
339 344 344 343 357 54 89 48 11 359 20 78 82 108 223 223 212 211 261 310 355 78 69 34 18 48 23 359 345 334 350 8 14 19 1 34 34 352 349 306 332 38 144 136 140 213 116 311 289 50 52 317 9 39 28 55 109 97 54 265 268 63 87 94 53 357 41 83 300 359 74 329 337 303 312 30 87 97 92 86 79 61 50 49 40 44 60 99
334 336 329 333 5 113 97 52 342 4 49 71 63 266 253 293 294 293 311 328 351 59 80 95 16 82 115 90 326 326 5 13 359 9 344 1 18 3 10 336 354 356 261 117 94 225 108 23 297 5 86 287 2 50 20 349 31 96 156 238 68 65 356 14 56 11 48 92 299 357 48 4 260 250 305 15 73 98 92 88 80 52 47 48 33 37 41 24
332 338 343 2 58 113 81 24 326 36 62 62 5 288 303 296 292 303 310 306 316 76 73 144 144 63 89 122 250 324 29 40 347 4 19 49 30 316 51 176 309 317 315 99 115 197 91 99 278 309 355 341 13 47 39 327 346 30 34 11 45 126 162 21 51 139 121 149 193 67 58 254 230 246 314 30 79 106 93 75 66 52 48 52 41 24 12 16
356 33 325 356 48 341 334 357 31 57 69 90 209 235 286 296 305 312 306 295 202 122 94 132 105 86 74 81 53 327 39 53 351 10 52 79 94 280 274 173 239 312 355 56 83 87 63 85 258 303 341 28 25 336 166 178 6 36 42 24 2 359 54 70 17 61 107 141 152 141 188 245 229 267 338 84 113 117 114 99 75 62 55 53 44 20 25 44
44 47 301 359 23 310 337 22 42 73 95 47 258 257 285 336 316 307 307 320 114 147 135 130 115 121 122 58 30 326 16 12 354 27 23 37 106 223 261 196 165 321 22 40 34 45 83 92 103 315 347 20 247 245 171 168 160 131 123 131 130 11 59 85 342 321 65 117 164 155 177 254 250 333 3 141 142 137 133 118 104 102 93 73 15 25 59 77
61 71 284 349 340 306 27 46 321 33 99 290 273 266 284 343 270 290 316 7 26 18 81 99 97 107 113 105 141 116 72 19 345 40 349 232 152 182 240 198 142 106 82 70 338 319 136 103 84 306 294 225 245 295 100 143 124 107 122 144 131 92 94 118 183 274 356 22 282 133 138 248 262 24 30 159 157 154 152 132 126 133 125 114 18 36 79 102
87 264 301 357 343 332 61 50 324 358 16 268 264 261 273 278 291 312 338 6 16 21 35 43 98 102 126 161 140 110 105 139 266 37 301 260 203 218 217 182 145 93 82 84 310 325 77 70 59 315 307 285 292 345 55 77 76 82 31 75 108 114 121 142 173 179 83 348 348 72 81 255 275 6 28 12 252 140 133 129 133 136 174 228 327 51 98 109
20 260 299 9 357 1 71 89 317 329 297 305 322 301 293 268 292 339 357 4 3 17 24 354 31 106 161 150 124 153 158 121 354 298 250 12 267 244 205 163 141 102 95 179 189 91 68 67 70 49 3 346 339 351 353 347 27 89 247 12 84 94 93 97 103 85 73 241 146 122 223 250 272 332 358 1 350 352 349 20 133 140 225 269 326 72 96 88
352 263 279 337 354 27 86 172 153 241 295 340 353 320 328 318 260 333 42 24 6 21 33 326 344 90 126 100 78 30 139 128 216 285 340 343 286 255 179 142 122 111 173 189 159 104 126 149 102 103 120 252 293 286 279 291 335 354 232 327 74 99 113 134 94 70 95 227 151 154 210 259 295 323 328 336 8 353 321 329 357 169 242 275 82 83 84 85
38 38 308 330 357 36 23 225 98 69 310 2 3 316 334 329 299 355 27 41 16 12 20 305 1 40 36 53 64 357 18 108 157 39 2 313 296 276 165 145 124 137 170 160 125 87 86 100 118 138 163 193 209 233 238 190 214 266 203 190 196 122 116 115 103 124 188 161 264 219 191 263 303 307 308 310 335 314 286 299 292 250 289 349 105 79 76 116
73 58 27 351 337 7 3 353 35 19 304 127 41 285 292 323 323 351 6 19 3 360 357 355 41 60 16 19 59 329 337 19 33 70 312 264 273 321 86 123 138 164 155 135 109 97 79 27 239 166 189 216 213 232 252 231 229 222 180 187 215 143 102 103 132 196 155 104 299 253 175 178 284 273 276 280 287 280 255 243 236 243 294 104 112 75 73 109
75 78 108 118 241 330 6 331 339 338 312 240 211 271 279 354 5 340 320 333 351 11 33 351 14 67 55 53 89 247 321 10 356 283 260 281 313 2 29 22 285 181 127 98 60 99 104 191 249 217 263 265 252 265 278 256 218 197 172 186 195 161 144 160 202 192 144 139 239 227 179 208 253 259 267 263 244 233 229 225 228 176 120 124 86 70 77 90
57 36 330 22 75 196 231 279 310 337 323 283 280 313 258 15 5 268 273 358 351 346 79 325 310 335 357 45 105 145 277 24 317 281 240 240 316 29 59 303 304 315 97 96 53 84 103 214 242 201 274 283 277 285 295 281 211 148 154 184 173 162 170 181 212 196 164 199 226 201 211 252 250 244 253 255 229 219 230 244 90 114 133 116 73 73 92 110
57 12 316 10 13 282 258 304 352 352 333 322 309 296 238 154 222 261 272 105 55 315 8 191 271 298 321 359 86 149 223 183 187 244 220 196 302 257 188 205 226 261 59 101 83 62 94 232 245 130 11 297 284 305 336 328 174 144 75 96 125 126 152 173 206 188 194 259 251 149 267 276 263 227 235 264 271 191 122 96 134 153 139 95 67 68 99 142
15 262 154 82 355 320 313 337 9 5 339 344 330 310 317 262 223 229 300 184 180 208 197 197 252 295 335 357 57 204 238 205 190 216 205 187 213 207 208 221 178 156 162 161 130 87 114 217 291 70 50 283 289 349 16 39 80 83 336 246 166 145 171 206 210 195 187 193 156 89 280 265 264 226 204 297 341 125 137 138 144 143 113 89 68 64 114 167
19 345 35 90 104 330 1 345 356 23 345 329 325 317 311 285 261 183 330 288 227 197 186 176 181 36 4 347 313 249 257 250 230 231 217 202 217 213 214 232 211 173 169 168 149 149 144 140 145 116 131 265 291 348 46 59 46 5 263 216 182 180 211 226 254 242 203 155 135 174 225 231 245 228 152 82 327 153 149 155 151 133 116 96 70 93 162 192